Weather in Azeyevo

Russia / Ryazan Oblast     54°40′10″N   42°01′40″E
temp.,
°C
wind,
m/s
gust,
m/s
humid.,
%
clouds,
%
prec.,
mm/h
press.,
hPa
HPBL,
m
3 march, wed
wed300:00−3nw4109697 0.0 1007345
03:00−2nw5119594 0.1 1008466
06:00−5nw5119176 0.1 1009348
09:00−7nw5119269 0.1 1012513
12:00−3nw6108790 0.0 1012806
15:00−2nw6107994 0.1 10121154
18:00−2wnw4109185 0.1 1011507
21:00−2wsw5129491 0.1 1011563
4 march, thu
thu400:00−2wsw61393100 0.1 1008704
03:00−2wsw71391100 0.1 1006731
06:00−2wsw71495100 0.3 1002634
09:00+1w91598100 1.2 1000890
12:00+1w81492100 0.1 1000893
15:000w61299100 0.3 1001709
18:00−3wnw3995100 2.0 1000493
21:00−3wsw2290100 2.3 100040
5 march, fri
fri500:00−4wnw2298100 0.5 100065
03:00−5n2596100 1.4 1000194
06:00−8n3595100 0.1 1003109
09:00−8n369594 0.1 1005250
12:00−4nnw238583 0.0 1007575
15:00−3wnw238189 0.1 1009726
18:00−7wsw228679 0.0 101021
21:00−9ssw349269 0.0 101243
6 march, sat
sat600:00−8wsw479593 0.5 1012171
03:00−12w479452 0.5 1012130
06:00−14wnw35960 0.0 101392
09:00−11nw46944 0.0 1014252
12:00−7nw468878 0.0 1015596
15:00−7nw568489 0.1 1015963
18:00−12nw488691 0.1 1015150
21:00−15wnw238847 0.1 101721
7 march, sun
sun700:00−16wsw34910 0.0 101648
03:00−16sw48910 0.0 1014134
06:00−14ssw6138824 0.0 1011271
09:00−9ssw9177962 0.0 1008762
12:00−6sw101788100 0.1 10031146
15:00−4sw101692100 1.2 9991267
18:00−3sw91694100 1.6 9951128
21:00−3wsw101696100 3.8 9931096